GEESAT-5 07

Last updated on Sun Sep 21 2025 00:02:08 GMT+0000 (Coordinated Universal Time)

1 65556U 25201G 25258.57138364 .00003308 00000+0 34979-3 0 9994 2 65556 49.9861 233.5897 0011960 318.2053 41.7975 14.91577636 1005
UTC large
Height (km)
Speed (km/s)
/
Latitude / Longitude
Inclination (degrees)
Orbital Period (minutes)
Azimuth
Elevation
Range (km)
Doppler Factor

Next 0 passes for location: London (51.5072 / 0.1276)

Sorry there are no passes over London.
GEESAT-5 07